When you browse on this site, cookies collect data to enhance your experience and personalize the content and advertising you see.
Visit our Privacy Policy to learn more. By continuing to use the site, you agree to this use of cookies and data.
EN

Hourly Weather Peschanyy Dol

Today, 29 September, Tuesday

Time Temperature Precipitation Wind Pressure Humidity
00:00 +12°C° 0 mm 1 mps 762 mmHg 64%
01:00 +11°C° 0 mm 1 mps 762 mmHg 66%
02:00 +11°C° 0 mm 1 mps 762 mmHg 67%
03:00 +11°C° 0 mm 1 mps 762 mmHg 69%
04:00 +10°C° 0 mm 1 mps 762 mmHg 71%
05:00 +10°C° 0 mm 1 mps 762 mmHg 73%
06:00 +10°C° 0 mm 1 mps 762 mmHg 75%
07:00 +12°C° 0 mm 2 mps 762 mmHg 68%
08:00 +14°C° 0 mm 2 mps 762 mmHg 62%
09:00 +16°C° 0 mm 2 mps 762 mmHg 55%
10:00 +17°C° 0 mm 2 mps 762 mmHg 50%
11:00 +18°C° 0 mm 3 mps 762 mmHg 46%
12:00 +19°C° 0 mm 3 mps 762 mmHg 41%
13:00 +19°C° 0 mm 3 mps 762 mmHg 40%
14:00 +20°C° 0 mm 3 mps 761 mmHg 40%
15:00 +20°C° 0 mm 3 mps 761 mmHg 39%
16:00 +18°C° 0 mm 3 mps 761 mmHg 46%
17:00 +16°C° 0 mm 2 mps 761 mmHg 52%
18:00 +15°C° 0 mm 2 mps 760 mmHg 58%
19:00 +14°C° 0 mm 2 mps 760 mmHg 61%
20:00 +14°C° 0 mm 2 mps 760 mmHg 64%
21:00 +13°C° 0 mm 2 mps 760 mmHg 67%
22:00 +13°C° 0 mm 2 mps 760 mmHg 69%
23:00 +12°C° 0 mm 2 mps 760 mmHg 71%

Tomorrow, 30 September, Wednesday

Time Temperature Precipitation Wind Pressure Humidity
00:00 +12°C° 0 mm 2 mps 760 mmHg 72%
01:00 +12°C° 0 mm 2 mps 760 mmHg 71%
02:00 +10°C° 0 mm 2 mps 760 mmHg 71%
03:00 +10°C° 0 mm 2 mps 760 mmHg 70%
04:00 +10°C° 0 mm 2 mps 760 mmHg 71%
05:00 +10°C° 0 mm 2 mps 760 mmHg 72%
06:00 +10°C° 0 mm 3 mps 760 mmHg 72%
07:00 +11°C° 0 mm 3 mps 760 mmHg 66%
08:00 +13°C° 0 mm 3 mps 760 mmHg 60%
09:00 +16°C° 0 mm 3 mps 760 mmHg 54%
10:00 +17°C° 0 mm 3 mps 760 mmHg 50%
11:00 +18°C° 0 mm 4 mps 760 mmHg 45%
12:00 +20°C° 0 mm 4 mps 760 mmHg 41%
13:00 +20°C° 0 mm 4 mps 760 mmHg 40%
14:00 +20°C° 0 mm 4 mps 759 mmHg 39%
15:00 +20°C° 0 mm 4 mps 759 mmHg 39%
16:00 +18°C° 0 mm 3 mps 759 mmHg 43%
17:00 +17°C° 0 mm 3 mps 759 mmHg 47%
18:00 +14°C° 0 mm 3 mps 759 mmHg 51%
19:00 +14°C° 0 mm 3 mps 759 mmHg 52%
20:00 +13°C° 0 mm 3 mps 759 mmHg 52%
21:00 +12°C° 0 mm 3 mps 760 mmHg 53%
22:00 +12°C° 0 mm 3 mps 760 mmHg 53%
23:00 +13°C° 0 mm 2 mps 760 mmHg 54%

Day after tomorrow, 1 October, Thursday

Time Temperature Precipitation Wind Pressure Humidity
00:00 +12°C° 0 mm 2 mps 760 mmHg 55%
01:00 +12°C° 0 mm 2 mps 760 mmHg 56%
02:00 +12°C° 0 mm 2 mps 760 mmHg 58%
03:00 +10°C° 0 mm 2 mps 760 mmHg 59%
04:00 +10°C° 0 mm 2 mps 760 mmHg 62%
05:00 +10°C° 0 mm 2 mps 760 mmHg 64%
06:00 +10°C° 0 mm 2 mps 760 mmHg 67%
07:00 +13°C° 0 mm 2 mps 760 mmHg 63%
08:00 +15°C° 0 mm 2 mps 760 mmHg 58%
09:00 +17°C° 0 mm 3 mps 760 mmHg 54%
10:00 +18°C° 0 mm 3 mps 760 mmHg 50%
11:00 +19°C° 0 mm 3 mps 760 mmHg 46%
12:00 +20°C° 0 mm 3 mps 760 mmHg 43%
13:00 +20°C° 0 mm 3 mps 760 mmHg 43%
14:00 +20°C° 0 mm 3 mps 759 mmHg 44%
15:00 +20°C° 0 mm 3 mps 759 mmHg 45%
16:00 +19°C° 0 mm 3 mps 759 mmHg 51%
17:00 +17°C° 0 mm 2 mps 759 mmHg 58%
18:00 +16°C° 0 mm 2 mps 759 mmHg 64%
19:00 +15°C° 0 mm 2 mps 759 mmHg 67%
20:00 +14°C° 0 mm 2 mps 759 mmHg 70%
21:00 +14°C° 0 mm 2 mps 759 mmHg 73%
22:00 +13°C° 0 mm 2 mps 759 mmHg 73%
23:00 +13°C° 0 mm 2 mps 759 mmHg 74%

2 October, Friday

Time Temperature Precipitation Wind Pressure Humidity
00:00 +12°C° 0 mm 1 mps 759 mmHg 75%
01:00 +12°C° 0 mm 1 mps 759 mmHg 75%
02:00 +12°C° 0 mm 1 mps 759 mmHg 75%
03:00 +11°C° 0 mm 1 mps 759 mmHg 75%
04:00 +11°C° 0 mm 1 mps 759 mmHg 76%
05:00 +11°C° 0 mm 1 mps 759 mmHg 77%
06:00 +10°C° 0 mm 1 mps 759 mmHg 78%
07:00 +12°C° 0 mm 1 mps 759 mmHg 71%
08:00 +14°C° 0 mm 2 mps 759 mmHg 64%
09:00 +16°C° 0 mm 2 mps 759 mmHg 57%
10:00 +17°C° 0 mm 2 mps 759 mmHg 53%
11:00 +18°C° 0 mm 2 mps 759 mmHg 49%
12:00 +20°C° 0 mm 2 mps 759 mmHg 45%
13:00 +20°C° 0 mm 2 mps 759 mmHg 44%
14:00 +20°C° 0 mm 2 mps 759 mmHg 43%
15:00 +20°C° 0 mm 2 mps 759 mmHg 43%
16:00 +18°C° 0 mm 2 mps 758 mmHg 48%
17:00 +18°C° 0 mm 1 mps 758 mmHg 54%
18:00 +15°C° 0 mm 1 mps 758 mmHg 60%
19:00 +15°C° 0 mm 1 mps 758 mmHg 63%
20:00 +14°C° 0 mm 1 mps 758 mmHg 66%
21:00 +13°C° 0 mm 1 mps 758 mmHg 69%
22:00 +13°C° 0 mm 1 mps 758 mmHg 70%
23:00 +13°C° 0 mm 1 mps 758 mmHg 72%

3 October, Saturday

Time Temperature Precipitation Wind Pressure Humidity
00:00 +12°C° 0 mm 1 mps 758 mmHg 74%
01:00 +12°C° 0 mm 1 mps 758 mmHg 75%
02:00 +11°C° 0 mm 1 mps 758 mmHg 77%
03:00 +11°C° 0 mm 1 mps 758 mmHg 79%
04:00 +11°C° 0 mm 1 mps 758 mmHg 80%
05:00 +11°C° 0 mm 1 mps 758 mmHg 81%
06:00 +10°C° 0 mm 1 mps 758 mmHg 82%
07:00 +12°C° 0 mm 1 mps 758 mmHg 75%
08:00 +14°C° 0 mm 1 mps 758 mmHg 67%
09:00 +16°C° 0 mm 1 mps 758 mmHg 60%
10:00 +18°C° 0 mm 1 mps 758 mmHg 55%
11:00 +19°C° 0 mm 1 mps 758 mmHg 51%
12:00 +20°C° 0 mm 1 mps 758 mmHg 47%
13:00 +20°C° 0 mm 1 mps 758 mmHg 45%
14:00 +20°C° 0 mm 1 mps 758 mmHg 44%
15:00 +21°C° 0 mm 1 mps 757 mmHg 43%
16:00 +19°C° 0 mm 1 mps 757 mmHg 48%
17:00 +18°C° 0 mm 1 mps 757 mmHg 53%
18:00 +15°C° 0 mm 1 mps 757 mmHg 58%
19:00 +14°C° 0 mm 1 mps 757 mmHg 60%
20:00 +14°C° 0 mm 1 mps 757 mmHg 62%
21:00 +13°C° 0 mm 1 mps 757 mmHg 65%
22:00 +13°C° 0 mm 1 mps 757 mmHg 66%
23:00 +12°C° 0 mm 1 mps 757 mmHg 68%

4 October, Sunday

Time Temperature Precipitation Wind Pressure Humidity
00:00 +12°C° 0 mm 1 mps 757 mmHg 69%
01:00 +11°C° 0 mm 1 mps 757 mmHg 70%
02:00 +11°C° 0 mm 1 mps 757 mmHg 70%
03:00 +11°C° 0 mm 1 mps 757 mmHg 71%
04:00 +11°C° 0 mm 1 mps 758 mmHg 72%
05:00 +10°C° 0 mm 1 mps 758 mmHg 72%
06:00 +10°C° 0 mm 1 mps 758 mmHg 73%
07:00 +10°C° 0 mm 2 mps 758 mmHg 68%
08:00 +13°C° 0 mm 2 mps 758 mmHg 62%
09:00 +14°C° 0 mm 2 mps 758 mmHg 57%
10:00 +15°C° 0 mm 2 mps 758 mmHg 53%
11:00 +16°C° 0 mm 2 mps 758 mmHg 50%
12:00 +17°C° 0 mm 2 mps 758 mmHg 46%
13:00 +18°C° 0 mm 1 mps 757 mmHg 45%
14:00 +19°C° 0 mm 1 mps 757 mmHg 43%
15:00 +19°C° 0 mm 1 mps 757 mmHg 42%
16:00 +16°C° 0 mm 2 mps 757 mmHg 47%
17:00 +15°C° 0 mm 2 mps 757 mmHg 52%
18:00 +13°C° 0 mm 2 mps 757 mmHg 57%
19:00 +13°C° 0 mm 2 mps 757 mmHg 61%
20:00 +12°C° 0 mm 2 mps 757 mmHg 66%
21:00 +10°C° 0 mm 3 mps 757 mmHg 70%
22:00 +10°C° 0 mm 3 mps 757 mmHg 74%
23:00 +10°C° 0 mm 2 mps 757 mmHg 77%
Show more